Location: Bo?a Wola
(50.4192°N, 19.7966°E)
Time: 13:38:06
(UTC+00:00)

USA 267 - Pass Details

Date: 15 June 2024
Orbit: 1100 x 1107 km, 123.0° (Epoch: 21 May)

Event Time Altitude Azimuth Distance (km) Brightness Sun altitude
Rises 00:59:50 0° 58° (ENE) 3,923 7.5 -10.2°
Reaches altitude 10° 01:02:34 10° 67° (ENE) 2,962 6.5 -9.9°
Maximum altitude 01:08:31 36° 132° (SE) 1,657 4.2 -9.4°
Drops below altitude 10° 01:14:27 10° 198° (SSW) 2,949 4.9 -8.9°
Enters shadow 01:14:40 - 199° (SSW) 3,022 5.0 -8.9°
